Terminal Aerodrome Forecast
Issued by NWS State College, PA

Home | Current Version | Previous Version | Text Only | Print | Product List | Glossary On
Versions: 1 2 3 4 5 6 7 8 9 10 11 12 13 14 15 16 17 18 19 20 21 22 23 24 25 26 27 28 29 30 31 32 33 34 35 36 37 38 39 40 41 42 43 44 45 46 47 48 49 50
000
FTUS41 KCTP 271431 AAA
TAFMDT
TAF AMD
KMDT 271431Z 2715/2812 14005KT 5SM BR OVC010
      TEMPO 2715/2718 P6SM NSW SCT010 BKN035
     FM271800 15008KT P6SM SCT050
     FM280300 20008KT P6SM VCSH OVC050
     FM280900 31007KT 4SM BR BKN250=

USA.gov is the U.S. government's official web portal to all federal, state and local government web resources and services.